Powrót do katalogu

STARLINK-11630

AktywnyŁącznośćVLEO
NORAD 63111·PAYLOAD·🇺🇸 United States

Wystrzelony Feb 27, 2025 z Cape Canaveral Space Force Station

Loading…

Następne Przeloty (najbliższe 24 godziny)

TLE

ŚwieżeSource: CelesTrak SupGP

Epoka: Sep 15, 2026, 03:39 UTC

1 63111C 25039H   26258.15256944  .00016405  00000+0  12746-3 0  2586
2 63111  43.0008 175.1121 0001528 275.9436 308.2568 15.70821553    19

Śledź STARLINK-11630 w czasie rzeczywistym z AllMySat

Download on the App Store